Погода Новая Ушица

Погода Новая Ушица : погода сейчас, прогноз погоды и архив. Всё, что Вы хотите узнать о погоде Новая Ушица!

Поиск расширенной информации на нашем сайте:

Другие новости

Новости СМИ2

Главная страница сайта

Новости сайта

03.07.2017

Напоминаем, что на нашем специализированном сайте Метеоцентр.Азия вы можете получить высокодетализированные автоматические прогнозы погоды по пунктам России, СНГ и мира в авиационном формате (включающие направление и скорость ветра, видимость, явления погоды, количество и форму облачности, нижнюю и верхнюю границу облачности).

Рекомендуем: Подробная информация Ремонт автогрейдера ДЗ-98 у нас.

Погода Новая Ушица - сегодня

Время (UTC), дата Ветер
(°,м/с) 
Видим.   Явления Облачность Т
(°С)
Тd
(°С)
f(%) Тe
(°С)
Pmin
(гПа)
dP
(гПа)
Po
(мм)
O2
(г/м3)
Тmin Tmax R s Состояние
почвы
09 12.09.17 120 (ЮВ) 29000 м    8/6 600 м средняя 
[Sc|Ac und]
+21.7 +16 70 +33  1003.7  0.2  728  268           
15 12.09.17 090 (В) 26000 м    8/5 600 м средняя 
[Sc|Ac und]
+22.4 +17.6 74 +37  1002.6  -0.9  727  266           
21 12.09.17 280 (З) н/о    4/0 верхняя 
[Ci fib]
+16.2 +14.7 91 +26  1005.8  1.7  729  273           
09 13.09.17 280 (З) н/о    9/6 300 м кучево-дожд., средняя 
[Cb cap|Ac cuf]
+17 +13.1 78 +23  1011.5  1.8  733  275           
15 13.09.17 270 (З) н/о    3/3 600 м кучево-дожд. 
[Cb calv]
+17.3 +9.8 61 +19  1013.3  0.1  734  276           
21 13.09.17 180 (Ю) н/о    ясно 
+10.7 +9.3 91 +13  1014.2  -0.2  735  283           
09 14.09.17 190 (Ю) н/о    3/0 средняя, верхняя 
[Ac trans|Ci fib]
+22.7 +7.3 37 +23  1012.6  -0.1  734  271           
15 14.09.17 160 (Ю) н/о    3/0 средняя, верхняя 
[Ac trans|Ci fib]
+25.7 +6 28 +26  1009.1  -1.6  732  268           
21 14.09.17 180 (Ю) н/о    ясно 
+19.4 +6.6 43 +20  1007.9  -0.5  731  273           
09 15.09.17 310 (СЗ) 45000 м    9/5 600 м средняя 
[Sc|Ac trans]
+16.9 +8.6 58 +17  1014.6  2.5  735  277           
15 15.09.17 340 (С) н/о    4/0 верхняя 
[Ci fib]
+19.7 +4.8 37 +21  1015.6  0.4  736  275           
21 15.09.17 тихо ()   н/о    ясно 
+10.4 +6.1 75 +10  1019  0.6  738  285           
09 16.09.17 140 (ЮВ) 28000 м    4/0 верхняя 
[Ci fib]
+20.9 +7.7 43 +21  1016.9  -0.8  737  274           
15 16.09.17 160 (Ю) 29000 м    8/4 600 м кучево-дожд., средняя, верхняя 
[Cb calv|Ac und|Ci fib]
+26 +11.6 41 +30  1013.1  -1.2  735  268           
21 16.09.17 тихо ()   н/о    6/0 средняя, верхняя 
[Ac trans|Ci fib]
+21.2 +12.4 57 +26  1014.6  0.3  736  272           
09 17.09.17 150 (ЮВ) н/о    8/0 средняя, верхняя 
[Ac trans|Ci fib]
+25.8 +13.1 45 +32  1012.5  -1.1  735  267           
15 17.09.17 140 (ЮВ) н/о    9/6 600 м средняя, верхняя 
[Sc|Ac und|Ci fib]
+27.7 +10.8 35 +31  1007.7  -2.2  731  265           
09 18.09.17 300 (СЗ) 60000 м    8/4 1000 м верхняя 
[Cu med, cong|Ci fib]
+18.7 +6.9 46 +19  1014.7  2.1  736  276           
15 18.09.17 310 (СЗ) 65000 м    6/0 верхняя 
[Ci fib]
+19.7 +7.3 45 +21  1015  0.1  736  275           
21 18.09.17 тихо ()   н/о    ясно 
+11.5 +6.2 70 +12  1018.3  0.8  738  284           
09 19.09.17 090 (В) н/о    9/0 средняя, верхняя 
[Ac trans|Ci fib]
+17.6 +5 43 +18  1018.4  -0.3  738  278           
09 20.09.17 140 (ЮВ) 28000 м    4/0 верхняя 
[Ci fib]
+19.2 +9 52 +21  1011.6  -0.4  733  274           
15 20.09.17 080 (В) 30000 м    9/3 600 м кучево-дожд., средняя 
[Cb calv|Ac trans]
+19.2 +12.5 65 +26  1009.6  -1.7  732  272           
09 21.09.17 тихо ()   21000 м    10/6 300 м кучево-дожд., средняя 
[Cb cap|Ac und]
+15.6 +14.6 94 +24  1007.9  0.1  730  274           
21 21.09.17 270 (З) н/о  дымка  ясно 
+13.9 +13 94 +21  1010.1  0.9  732  277           
Время (UTC), дата Ветер
(°,м/с) 
Видим.   Явления Облачность Т
(°С)
Тd
(°С)
f(%) Тe
(°С)
Pmin
(гПа)
dP
(гПа)
Po
(мм)
O2
(г/м3)
Тmin Tmax R s Состояние
почвы

Для получения пояснительной информации подведите курсор к названию столбца.

ПОГОДА Новая Ушица - архив

Всё, что Вы хотите узнать о погоде Новая Ушица - удобно и подробно!

Выберите нужную дату (начиная с 1 января 2015* года) и нажмите кнопку "Найти".
Будут отображены архивные сводки погоды по пункту Новая Ушица, начиная с указанной даты.


Отображать данные в формате CSV (для использования в таблицах Excel)


Внимание! Наш архив погоды предназначен исключительно для личного некоммерческого использования в познавательных целях. Если Вам необходимы официальные справки о состоянии погоды (для производственных, юридических, коммерческих и т.п. целей), обращайтесь в органы Росгидромета.

*Примечание: данная дата относится к архиву по метеостанциям СССР (Россия, СНГ, Балтия).
Архив по метеостанциям Зарубежной Европы и Азии (кроме Китая) хранится 10 дней, по другим регионам земного шара (Китай, Африка, Америка, Австралия, Океания) - 1 день.

Новая Ушица - район местоположения метеостанции


Название, широта, долгота, высота метеостанции:
Новая Ушица 48.9°ш. 27.3°д. 290 м над ур. моря [Украина]

Дополнительная информация

В oтличие oт бoльшинства пoгoдных сайтoв мы публикуем пoдрoбную метеoинфoрмацию в детальнoм прoфессиoнальнoм фoрмате.

Характеристики температуры и влажнoсти вoздуха измеряются на высoте 2 м в тени вдали oт зданий и деревьев.
Скoрoсть ветра измеряется на высoте 10 м (на урoвне рoста челoвека скoрoсть ветра ниже в 1.5-2 раза). Если метеoстанция нахoдится в гoрoде или в лесу, тo скoрoсть ветра занижена на 2-4 м/с пo сравнению с oткрытым местoм. Скoрoсть ветра над акватoриями крупных рек и oзёр, а также на вершинах хoлмoв на 2-5 м/с выше, чем в oбычных услoвиях.
Атмoсфернoе давление в разных тoчках местнoсти мoжет значительнo oтличаться oт давления на метеoстанции, в зависимoсти oт услoвий рельефа (при пoдъёме на 10 м давление пoнижается примернo на 1 мм рт.ст.).